Aérodrome d'Arcachon-La Teste-de-Buch

LFCH · Gironde, Nouvelle-Aquitaine, Francja

Historia METAR LFCH · Aérodrome d'Arcachon-La Teste-de-Buch

Poniżej widzisz METAR-y z ostatnich kilku dni. Wybierz rok, aby przeglądać starsze METAR-y, począwszy od roku 2007.

20 lipca 2024

Czas Kod Pogoda Temp. Widoczność Sufit Wiatr METAR/SPECI
19:30
V
23 °C 10 km+ - 310° 310° 10 kt METAR LFBC 201730Z AUTO 31010KT 270V330 CAVOK 23/17 Q1009
19:00
V
24 °C 10 km+ - 300° 300° 8 kt METAR LFBC 201700Z AUTO 30008KT 270V330 CAVOK 24/17 Q1009
18:30
V
25 °C 10 km+ - 300° 300° 8 kt METAR LFBC 201630Z AUTO 30008KT 270V330 CAVOK 25/17 Q1009
18:00
V
26 °C 10 km+ - 300° 300° 5 kt METAR LFBC 201600Z AUTO 30005KT 230V340 CAVOK 26/17 Q1009
17:30
V
25 °C 10 km+ 5.600 ft 330° 330° 4 kt METAR LFBC 201530Z AUTO 33004KT 290V030 9999 FEW047 BKN056 25/17 Q1009
17:00
V
24 °C 10 km+ 5.600 ft 330° 330° 8 kt METAR LFBC 201500Z AUTO 33008KT 300V360 9999 FEW046 OVC056 24/17 Q1010
16:30
V
24 °C 10 km+ 5.800 ft 320° 320° 8 kt METAR LFBC 201430Z AUTO 32008KT 9999 FEW047 OVC058 24/17 Q1010
16:00
V
24 °C 10 km+ 4.600 ft 310° 310° 8 kt METAR LFBC 201400Z AUTO 31008KT 280V340 9999 BKN046 OVC054 24/17 Q1010
15:30
V
25 °C 10 km+ 4.500 ft 330° 330° 10 kt METAR LFBC 201330Z AUTO 33010KT 280V360 9999 BKN045 BKN054 25/17 Q1010
15:00
V
25 °C 10 km+ 4.600 ft 320° 320° 10 kt METAR LFBC 201300Z AUTO 32010KT 270V350 9999 BKN046 BKN054 25/16 Q1010
14:30
V
25 °C 10 km+ 4.800 ft 310° 310° 7 kt METAR LFBC 201230Z AUTO 31007KT 220V360 9999 BKN048 BKN054 25/16 Q1010
14:00
V
25 °C 10 km+ 4.400 ft 290° 290° 8 kt METAR LFBC 201200Z AUTO 29008KT 250V330 9999 BKN044 BKN050 25/16 Q1011
13:30
V
26 °C 10 km+ 5.000 ft 320° 320° 8 kt METAR LFBC 201130Z AUTO 32008KT 270V020 9999 FEW044 BKN050 BKN160 26/15 Q1011
13:00
V
26 °C 10 km+ - 300° 300° 8 kt METAR LFBC 201100Z AUTO 30008KT 260V350 CAVOK 26/16 Q1011
12:30
V
26 °C 10 km+ - 320° 320° 6 kt METAR LFBC 201030Z AUTO 32006KT 240V360 9999 SCT044 SCT050 26/13 Q1011
12:00
V
25 °C 10 km+ 4.700 ft 310° 310° 6 kt METAR LFBC 201000Z AUTO 31006KT 260V350 9999 BKN047 BKN240 25/15 Q1011
11:30
V
24 °C 10 km+ 4.500 ft 310° 310° 6 kt METAR LFBC 200930Z AUTO 31006KT 260V350 9999 BKN045 BKN052 24/14 Q1011
11:00
V
24 °C 10 km+ 4.500 ft 310° 310° 5 kt METAR LFBC 200900Z AUTO 31005KT 260V360 9999 BKN045 BKN052 24/15 Q1012
10:30
V
23 °C 10 km+ - 330° 330° 4 kt METAR LFBC 200830Z AUTO 33004KT 280V060 CAVOK 23/18 Q1012
10:00
V
22 °C 10 km+ - 330° 330° 3 kt METAR LFBC 200800Z AUTO 33003KT 300V020 CAVOK 22/18 Q1012
09:30
V
22 °C 10 km+ - Var Var 2 kt METAR LFBC 200730Z AUTO VRB02KT CAVOK 22/18 Q1012
09:00
V
21 °C 10 km+ - Var Var 2 kt METAR LFBC 200700Z AUTO VRB02KT CAVOK 21/18 Q1012
08:30
V
20 °C 10 km+ - Var Var 2 kt METAR LFBC 200630Z AUTO VRB02KT CAVOK 20/18 Q1012
08:00
V
20 °C 10 km+ - Var Var 2 kt METAR LFBC 200600Z AUTO VRB02KT CAVOK 20/18 Q1012
07:30
V
20 °C 10 km+ 4.800 ft 360° 360° 3 kt METAR LFBC 200530Z AUTO 36003KT 9999 OVC048 20/18 Q1012
07:00
V
20 °C 10 km+ 4.700 ft Var Var 2 kt METAR LFBC 200500Z AUTO VRB02KT 9999 OVC047 20/18 Q1013
06:30
V
20 °C 10 km+ 4.500 ft 360° 360° 1 kt METAR LFBC 200430Z AUTO 36001KT 9999 OVC045 20/18 Q1013
06:00
V
20 °C 10 km+ 4.500 ft Var Var 3 kt METAR LFBC 200400Z AUTO VRB03KT 9999 OVC045 20/18 Q1013
05:30
V
19 °C 10 km+ 4.300 ft 350° 350° 6 kt METAR LFBC 200330Z AUTO 35006KT 9999 OVC043 19/18 Q1013
05:00
V
18 °C 10 km+ 4.200 ft 360° 360° 0 kt METAR LFBC 200300Z AUTO 00000KT 9999 OVC042 18/17 Q1013
04:30
V
17 °C 10 km+ 4.300 ft 360° 360° 0 kt METAR LFBC 200230Z AUTO 00000KT 9999 BKN043 17/15 Q1014
04:00
V
18 °C 10 km+ - 360° 360° 0 kt METAR LFBC 200200Z AUTO 00000KT CAVOK 18/17 Q1014
03:30
V
18 °C 10 km+ - 310° 310° 2 kt METAR LFBC 200130Z AUTO 31002KT CAVOK 18/17 Q1014
03:00
V
19 °C 10 km+ - 350° 350° 2 kt METAR LFBC 200100Z AUTO 35002KT CAVOK 19/17 Q1014
02:30
V
19 °C 10 km+ - 350° 350° 3 kt METAR LFBC 200030Z AUTO 35003KT CAVOK 19/17 Q1015
02:00
V
19 °C 10 km+ - 330° 330° 5 kt METAR LFBC 200000Z AUTO 33005KT CAVOK 19/17 Q1015
01:30
V
19 °C 10 km+ - 320° 320° 4 kt METAR LFBC 192330Z AUTO 32004KT CAVOK 19/15 Q1015
01:00
V
19 °C 10 km+ - 330° 330° 4 kt METAR LFBC 192300Z AUTO 33004KT CAVOK 19/15 Q1015
00:30
V
20 °C 10 km+ - 320° 320° 3 kt METAR LFBC 192230Z AUTO 32003KT CAVOK 20/15 Q1016
00:00
V
20 °C 10 km+ - Var Var 3 kt METAR LFBC 192200Z AUTO VRB03KT CAVOK 20/15 Q1016

19 lipca 2024

Czas Kod Pogoda Temp. Widoczność Sufit Wiatr METAR/SPECI
23:30
V
21 °C 10 km+ - 330° 330° 5 kt METAR LFBC 192130Z AUTO 33005KT CAVOK 21/16 Q1016
23:00
V
21 °C 10 km+ - 340° 340° 4 kt METAR LFBC 192100Z AUTO 34004KT CAVOK 21/16 Q1016
22:30
V
21 °C 10 km+ - 340° 340° 5 kt METAR LFBC 192030Z AUTO 34005KT CAVOK 21/16 Q1016
22:00
V
22 °C 10 km+ - 350° 350° 5 kt METAR LFBC 192000Z AUTO 35005KT CAVOK 22/16 Q1016
21:30
V
23 °C 10 km+ - 350° 350° 7 kt METAR LFBC 191930Z AUTO 35007KT CAVOK 23/16 Q1016
21:00
V
24 °C 10 km+ - 350° 350° 8 kt METAR LFBC 191900Z AUTO 35008KT CAVOK 24/17 Q1016
20:30
V
24 °C 10 km+ - 350° 350° 9 kt METAR LFBC 191830Z AUTO 35009KT 310V020 CAVOK 24/17 Q1016
20:00
V
25 °C 10 km+ - 360° 360° 11 kt METAR LFBC 191800Z AUTO 36011KT CAVOK 25/17 Q1016
19:30
V
26 °C 10 km+ - 340° 340° 10 kt METAR LFBC 191730Z AUTO 34010KT CAVOK 26/17 Q1016
19:00
V
27 °C 10 km+ - 340° 340° 10 kt METAR LFBC 191700Z AUTO 34010KT 300V360 CAVOK 27/17 Q1016
18:30
V
27 °C 10 km+ - 340° 340° 10 kt METAR LFBC 191630Z AUTO 34010KT CAVOK 27/18 Q1016 NOSIG
18:00
V
28 °C 10 km+ - 330° 330° 11 kt METAR LFBC 191600Z AUTO 33011KT 300V360 CAVOK 28/17 Q1016 NOSIG
17:30
V
28 °C 10 km+ - 330° 330° 11 kt METAR LFBC 191530Z AUTO 33011KT 300V360 CAVOK 28/17 Q1017 NOSIG
17:00
V
28 °C 10 km+ - 340° 340° 9 kt METAR LFBC 191500Z AUTO 34009KT 300V010 CAVOK 28/17 Q1017 NOSIG
16:30
V
28 °C 10 km+ - 330° 330° 11 kt METAR LFBC 191430Z AUTO 33011KT 300V360 CAVOK 28/17 Q1017 NOSIG
16:00
V
28 °C 10 km+ - 320° 320° 10 kt METAR LFBC 191400Z AUTO 32010KT 280V360 CAVOK 28/17 Q1018 NOSIG
15:30
V
28 °C 10 km+ - 320° 320° 10 kt METAR LFBC 191330Z AUTO 32010KT 280V010 CAVOK 28/16 Q1018 NOSIG
15:00
V
28 °C 10 km+ - 310° 310° 9 kt METAR LFBC 191300Z AUTO 31009KT 270V360 CAVOK 28/17 Q1018 NOSIG
14:30
V
28 °C 10 km+ - 310° 310° 8 kt METAR LFBC 191230Z AUTO 31008KT 270V340 CAVOK 28/18 Q1018 NOSIG
14:00
V
29 °C 10 km+ - 310° 310° 5 kt METAR LFBC 191200Z AUTO 31005KT 200V010 CAVOK 29/17 Q1018 NOSIG
13:30
V
28 °C 10 km+ - 320° 320° 7 kt METAR LFBC 191130Z AUTO 32007KT 290V010 CAVOK 28/17 Q1018 NOSIG
13:00
V
27 °C 10 km+ - 320° 320° 7 kt METAR LFBC 191100Z AUTO 32007KT 280V030 CAVOK 27/17 Q1018 NOSIG
12:30
V
27 °C 10 km+ - 300° 300° 6 kt METAR LFBC 191030Z AUTO 30006KT 220V330 CAVOK 27/17 Q1019 NOSIG
12:00
V
27 °C 10 km+ - 310° 310° 5 kt METAR LFBC 191000Z AUTO 31005KT 240V360 CAVOK 27/18 Q1018 NOSIG
11:30
V
26 °C 10 km+ - 320° 320° 6 kt METAR LFBC 190930Z AUTO 32006KT 280V350 CAVOK 26/18 Q1019 NOSIG
11:00
V
25 °C 10 km+ - 290° 290° 6 kt METAR LFBC 190900Z AUTO 29006KT 270V330 CAVOK 25/19 Q1019 NOSIG
10:30
V
25 °C 10 km+ - 240° 240° 7 kt METAR LFBC 190830Z AUTO 24007KT 200V320 9999 FEW019 25/20 Q1019 NOSIG
10:00
V
25 °C 10 km+ - 250° 250° 4 kt METAR LFBC 190800Z AUTO 25004KT 210V310 CAVOK 25/19 Q1019 NOSIG
09:30
V
25 °C 10 km+ - Var Var 2 kt METAR LFBC 190730Z AUTO VRB02KT CAVOK 25/19 Q1018 NOSIG
09:00
V
23 °C 10 km+ - 280° 280° 3 kt METAR LFBC 190700Z AUTO 28003KT 250V360 CAVOK 23/19 Q1018 NOSIG
08:30
V
22 °C 10 km+ - 310° 310° 5 kt METAR LFBC 190630Z AUTO 31005KT 280V340 CAVOK 22/20 Q1018 NOSIG
08:00
V
21 °C 10 km+ - 310° 310° 4 kt METAR LFBC 190600Z AUTO 31004KT 280V340 CAVOK 21/19 Q1018 NOSIG
07:30
V
20 °C 10 km+ - 290° 290° 3 kt METAR LFBC 190530Z AUTO 29003KT CAVOK 20/19 Q1018 NOSIG
07:00
V
20 °C 10 km+ - 300° 300° 4 kt METAR LFBC 190500Z AUTO 30004KT CAVOK 20/19 Q1018 NOSIG
06:30
V
20 °C 10 km+ - 300° 300° 4 kt METAR LFBC 190430Z AUTO 30004KT CAVOK 20/18 Q1018
06:00
V
20 °C 10 km+ - 300° 300° 5 kt METAR LFBC 190400Z AUTO 30005KT CAVOK 20/18 Q1018
05:30
V
20 °C 10 km+ - 300° 300° 5 kt METAR LFBC 190330Z AUTO 30005KT CAVOK 20/18 Q1018
05:00
V
19 °C 10 km+ - 310° 310° 4 kt METAR LFBC 190300Z AUTO 31004KT CAVOK 19/18 Q1018
04:30
V
20 °C 10 km+ - 310° 310° 5 kt METAR LFBC 190230Z AUTO 31005KT CAVOK 20/18 Q1018
04:00
V
20 °C 10 km+ - 270° 270° 5 kt METAR LFBC 190200Z AUTO 27005KT 240V300 CAVOK 20/18 Q1018
03:30
V
20 °C 10 km+ - 280° 280° 5 kt METAR LFBC 190130Z AUTO 28005KT 240V330 CAVOK 20/18 Q1018
03:00
V
20 °C 10 km+ - 310° 310° 5 kt METAR LFBC 190100Z AUTO 31005KT CAVOK 20/18 Q1018
02:30
V
20 °C 10 km+ - Var Var 2 kt METAR LFBC 190030Z AUTO VRB02KT CAVOK 20/17 Q1018
02:00
V
21 °C 10 km+ - 310° 310° 5 kt METAR LFBC 190000Z AUTO 31005KT CAVOK 21/16 Q1018
01:30
V
21 °C 10 km+ - 280° 280° 4 kt METAR LFBC 182330Z AUTO 28004KT CAVOK 21/16 Q1018
01:00
V
22 °C 10 km+ - 330° 330° 6 kt METAR LFBC 182300Z AUTO 33006KT CAVOK 22/15 Q1018
00:30
V
22 °C 10 km+ - 330° 330° 5 kt METAR LFBC 182230Z AUTO 33005KT CAVOK 22/16 Q1018
00:00
V
22 °C 10 km+ - 330° 330° 6 kt METAR LFBC 182200Z AUTO 33006KT CAVOK 22/15 Q1018

18 lipca 2024

Czas Kod Pogoda Temp. Widoczność Sufit Wiatr METAR/SPECI
23:30
V
22 °C 10 km+ - 310° 310° 5 kt METAR LFBC 182130Z AUTO 31005KT CAVOK 22/16 Q1018
23:00
V
23 °C 10 km+ - 300° 300° 4 kt METAR LFBC 182100Z AUTO 30004KT CAVOK 23/16 Q1018
22:30
V
23 °C 10 km+ - 310° 310° 4 kt METAR LFBC 182030Z AUTO 31004KT CAVOK 23/15 Q1018
22:00
V
24 °C 10 km+ - 320° 320° 3 kt METAR LFBC 182000Z AUTO 32003KT 300V360 CAVOK 24/16 Q1017
21:30
V
25 °C 10 km+ - 340° 340° 5 kt METAR LFBC 181930Z AUTO 34005KT CAVOK 25/16 Q1017
21:00
V
26 °C 10 km+ - 350° 350° 8 kt METAR LFBC 181900Z AUTO 35008KT CAVOK 26/16 Q1017
20:30
V
27 °C 10 km+ - 350° 350° 8 kt METAR LFBC 181830Z AUTO 35008KT 320V030 CAVOK 27/16 Q1017
20:00
V
27 °C 10 km+ - 350° 350° 10 kt METAR LFBC 181800Z AUTO 35010KT 310V010 CAVOK 27/16 Q1016
19:30
V
28 °C 10 km+ - 330° 330° 10 kt METAR LFBC 181730Z AUTO 33010KT 300V360 CAVOK 28/17 Q1016
19:00
V
29 °C 10 km+ - 320° 320° 11 kt METAR LFBC 181700Z AUTO 32011KT CAVOK 29/17 Q1016
18:30
V
30 °C 10 km+ - 330° 330° 11 kt METAR LFBC 181630Z AUTO 33011KT CAVOK 30/16 Q1016 NOSIG
18:00
V
31 °C 10 km+ - 320° 320° 8 kt METAR LFBC 181600Z AUTO 32008KT 280V360 CAVOK 31/17 Q1016 NOSIG
17:30
V
32 °C 10 km+ - 320° 320° 8 kt METAR LFBC 181530Z AUTO 32008KT CAVOK 32/18 Q1016 NOSIG
17:00
V
32 °C 10 km+ - 320° 320° 9 kt METAR LFBC 181500Z AUTO 32009KT CAVOK 32/17 Q1016 NOSIG
16:30
V
32 °C 10 km+ - 330° 330° 10 kt METAR LFBC 181430Z AUTO 33010KT 290V350 CAVOK 32/18 Q1017 NOSIG
16:00
V
32 °C 10 km+ - 310° 310° 10 kt METAR LFBC 181400Z AUTO 31010KT 280V350 CAVOK 32/17 Q1016 NOSIG
15:30
V
31 °C 10 km+ - 310° 310° 9 kt METAR LFBC 181330Z AUTO 31009KT 280V340 CAVOK 31/17 Q1017 NOSIG
15:00
V
32 °C 10 km+ - 300° 300° 9 kt METAR LFBC 181300Z AUTO 30009KT 260V330 CAVOK 32/18 Q1017 NOSIG
14:30
V
33 °C 10 km+ - 250° 250° 4 kt METAR LFBC 181230Z AUTO 25004KT 190V330 CAVOK 33/19 Q1017 NOSIG
14:00
V
32 °C 10 km+ - 270° 270° 3 kt METAR LFBC 181200Z AUTO 27003KT 230V340 CAVOK 32/18 Q1017 NOSIG
13:30
V
31 °C 10 km+ - 250° 250° 5 kt METAR LFBC 181130Z AUTO 25005KT 210V010 CAVOK 31/18 Q1017 NOSIG
13:00
V
31 °C 10 km+ - 230° 230° 4 kt METAR LFBC 181100Z AUTO 23004KT 170V290 CAVOK 31/18 Q1017 NOSIG
12:30
V
30 °C 10 km+ - 230° 230° 6 kt METAR LFBC 181030Z AUTO 23006KT 190V260 CAVOK 30/18 Q1017 NOSIG
12:00
V
30 °C 10 km+ - 210° 210° 4 kt METAR LFBC 181000Z AUTO 21004KT 130V260 CAVOK 30/18 Q1017 NOSIG
11:30
V
29 °C 10 km+ - 150° 150° 4 kt METAR LFBC 180930Z AUTO 15004KT 090V240 CAVOK 29/17 Q1017 NOSIG
11:00
V
28 °C 10 km+ - 140° 140° 5 kt METAR LFBC 180900Z AUTO 14005KT 090V180 CAVOK 28/17 Q1017 NOSIG
10:30
V
27 °C 10 km+ - 110° 110° 4 kt METAR LFBC 180830Z AUTO 11004KT 070V170 CAVOK 27/17 Q1017 NOSIG
10:00
V
26 °C 10 km+ - 120° 120° 6 kt METAR LFBC 180800Z AUTO 12006KT CAVOK 26/17 Q1017 NOSIG
09:30
V
24 °C 10 km+ - 080° 080° 5 kt METAR LFBC 180730Z AUTO 08005KT 050V110 CAVOK 24/17 Q1017 NOSIG
09:00
V
22 °C 10 km+ - Var Var 3 kt METAR LFBC 180700Z AUTO VRB03KT CAVOK 22/16 Q1017 NOSIG
08:30
V
20 °C 10 km+ - Var Var 1 kt METAR LFBC 180630Z AUTO VRB01KT CAVOK 20/16 Q1017 NOSIG
08:00
V
18 °C 10 km+ - Var Var 2 kt METAR LFBC 180600Z AUTO VRB02KT CAVOK 18/15 Q1017 NOSIG
Zgłoś zmianę